Cleveland, OH

10:58 AM EDT on July 24, 2017 (GMT -0400)
Cleveland-Hopkins International

Weather History for KCLE - November, 2014

Change the Weather History Date:

Wednesday, November 26, 2014

  Actual Average Record
Temperature  
Mean Temperature 34 °F 40 °F  
Max Temperature 37 °F 46 °F 70 °F (1896)
Min Temperature 31 °F 33 °F 9 °F (1880)
Degree Days  
Heating Degree Days 31 25  
Month to date heating degree days 725 530  
Since 1 July heating degree days 1225 990  
Cooling Degree Days 0 0  
Month to date cooling degree days 0 0  
Year to date cooling degree days 657 816  
Moisture  
Dew Point 25 °F    
Average Humidity 72    
Maximum Humidity 85    
Minimum Humidity 59    
Precipitation  
Precipitation 0.00 in 0.11 in 0.89 in (1986)
Month to date precipitation 2.80 3.15  
Year to date precipitation 41.22 35.57  
Snow  
Snow 0.00 in 0.20 in - ()
Month to date snowfall 12.4 3.4  
Since 1 July snowfall 12.4 3.6  
Since 1 September snowfall 12.4 3.6  
Snow Depth 0.00 in    
Sea Level Pressure  
Sea Level Pressure 30.14 in    
Wind  
Wind Speed 4 mph (SSE)    
Max Wind Speed 10 mph    
Max Gust Speed 12 mph    
Visibility 10 miles    
Events      
T = Trace of Precipitation, MM = Missing Value Source: NWS Daily Summary

Daily Weather History Graph

Daily Weather History Graph

Search for Another Location

Airport or City:

Trip Planner

Search our weather history database for the weather conditions in past years. The results will help you decide how hot, cold, wet, or windy it might be!

Date:

Astronomy

Nov. 26, 2014 Rise Set
Actual Time 7:28 AM EST 5:00 PM EST
Civil Twilight 6:58 AM EST 5:30 PM EST
Nautical Twilight 6:24 AM EST 6:05 PM EST
Astronomical Twilight 5:50 AM EST 6:38 PM EST
Moon 10:59 AM EST (11/26) 9:32 PM EST (11/26)
Length of Visible Light 10h 32m
Length of Day
9h 31m
Waxing Crescent, 21% of the Moon is Illuminated
Nov 26
Waxing Crescent
Nov 29
First Quarter
Dec 6
Full
Dec 14
Last Quarter
Dec 21
New

Hourly Weather History & Observations

Time (EST) Temp. Windchill Dew Point Humidity Pressure Visibility Wind Dir Wind Speed Gust Speed Precip Events Conditions
12:51 AM 30.9 °F - 23.0 °F 72% 30.25 in 10.0 mi Calm Calm - N/A   Overcast
1:51 AM 30.9 °F - 24.1 °F 76% 30.20 in 10.0 mi Calm Calm - N/A   Overcast
2:51 AM 30.9 °F 27.5 °F 24.1 °F 76% 30.24 in 10.0 mi SSE 3.5 mph - N/A   Overcast
3:51 AM 32.0 °F - 23.0 °F 69% 30.20 in 10.0 mi Calm Calm - N/A   Overcast
4:51 AM 30.9 °F - 25.0 °F 79% 30.21 in 10.0 mi Calm Calm - N/A   Overcast
5:51 AM 32.0 °F 28.7 °F 24.1 °F 73% 30.19 in 10.0 mi ENE 3.5 mph - N/A   Overcast
6:51 AM 32.0 °F 25.6 °F 24.1 °F 73% 30.18 in 10.0 mi East 6.9 mph - N/A   Overcast
7:51 AM 33.1 °F 26.1 °F 24.1 °F 70% 30.19 in 10.0 mi East 8.1 mph - N/A   Overcast
8:51 AM 33.1 °F 28.7 °F 24.1 °F 70% 30.19 in 10.0 mi East 4.6 mph - N/A   Overcast
9:51 AM 34.0 °F 28.0 °F 25.0 °F 70% 30.17 in 10.0 mi ENE 6.9 mph - N/A   Overcast
10:51 AM 36.0 °F 31.1 °F 25.0 °F 64% 30.17 in 10.0 mi East 5.8 mph - N/A   Overcast
11:51 AM 36.0 °F 31.1 °F 25.0 °F 64% 30.15 in 10.0 mi East 5.8 mph - N/A   Overcast
12:51 PM 35.1 °F 31.0 °F 25.0 °F 67% 30.13 in 10.0 mi SE 4.6 mph - N/A   Overcast
1:51 PM 37.0 °F - 24.1 °F 59% 30.10 in 10.0 mi Calm Calm - N/A   Overcast
2:51 PM 37.0 °F 34.5 °F 24.1 °F 59% 30.09 in 10.0 mi NW 3.5 mph - N/A   Overcast
3:51 PM 37.0 °F 33.3 °F 24.1 °F 59% 30.09 in 10.0 mi NW 4.6 mph - N/A   Overcast
4:51 PM 35.1 °F 32.2 °F 24.1 °F 64% 30.09 in 10.0 mi WSW 3.5 mph - N/A   Overcast
5:51 PM 34.0 °F 28.0 °F 26.1 °F 73% 30.09 in 10.0 mi NW 6.9 mph - N/A   Mostly Cloudy
6:51 PM 34.0 °F 28.0 °F 27.0 °F 75% 30.09 in 10.0 mi West 6.9 mph - N/A   Overcast
7:51 PM 34.0 °F 31.0 °F 27.0 °F 75% 30.08 in 10.0 mi West 3.5 mph - N/A   Overcast
8:51 PM 33.1 °F 28.7 °F 27.0 °F 78% 30.08 in 10.0 mi SSW 4.6 mph - N/A   Overcast
9:51 PM 32.0 °F 25.6 °F 27.0 °F 82% 30.07 in 9.0 mi SSW 6.9 mph - N/A   Mostly Cloudy
10:51 PM 32.0 °F 26.4 °F 28.0 °F 85% 30.07 in 9.0 mi SSW 5.8 mph - N/A   Overcast
11:51 PM 32.0 °F 26.4 °F 28.0 °F 85% 30.07 in 8.0 mi SW 5.8 mph - N/A   Overcast